This is the latest recevied weather packets stored in our database for station/object S56VIL-11. If no packets are shown the sender has not sent any weather packets the latest 1 day(s).
| Time | Temp. | Humidity | Pressure | Rain* | Wind** | Luminosity | Snow |
|---|---|---|---|---|---|---|---|
| 1788380696 | 20° C | 58% | 1033.1 hPa | - | - | - | - |
| 1788379796 | 20° C | 59% | 1033 hPa | - | - | - | - |
| 1788378896 | 20° C | 59% | 1033.1 hPa | - | - | - | - |
| 1788377996 | 20° C | 59% | 1033 hPa | - | - | - | - |
| 1788377095 | 21.11° C | 59% | 1033.1 hPa | - | - | - | - |
| 1788376195 | 21.11° C | 60% | 1033.3 hPa | - | - | - | - |
| 1788375295 | 21.11° C | 59% | 1033.1 hPa | - | - | - | - |
| 1788374395 | 21.11° C | 59% | 1032.8 hPa | - | - | - | - |
| 1788373495 | 21.11° C | 60% | 1032.6 hPa | - | - | - | - |
| 1788372595 | 21.11° C | 59% | 1032.3 hPa | - | - | - | - |
| 1788371695 | 21.67° C | 59% | 1032.2 hPa | - | - | - | - |
| 1788370795 | 21.67° C | 59% | 1032.1 hPa | - | - | - | - |
| 1788369895 | 22.22° C | 59% | 1031.9 hPa | - | - | - | - |
| 1788368998 | 22.22° C | 59% | 1031.9 hPa | - | - | - | - |
| 1788368095 | 22.78° C | 59% | 1031.6 hPa | - | - | - | - |
| 1788367195 | 23.89° C | 58% | 1031.7 hPa | - | - | - | - |
| 1788366295 | 25.56° C | 57% | 1031.7 hPa | - | - | - | - |
| 1788365395 | 26.67° C | 57% | 1031.7 hPa | - | - | - | - |
| 1788364494 | 26.11° C | 57% | 1031.8 hPa | - | - | - | - |
| 1788363598 | 26.67° C | 57% | 1031.9 hPa | - | - | - | - |
| 1788362694 | 27.78° C | 56% | 1031.9 hPa | - | - | - | - |
| 1788361794 | 26.11° C | 57% | 1032 hPa | - | - | - | - |
| 1788360894 | 26.11° C | 57% | 1032 hPa | - | - | - | - |
| 1788359994 | 27.22° C | 57% | 1032.1 hPa | - | - | - | - |
| 1788359094 | 30° C | 55% | 1032.2 hPa | - | - | - | - |
* Rain since midnight (hover to see other rain measurements)
** Current wind speed in m/s (hover to see current wind gust speed)